Wind_Speed
41 43 45 47 48 49 50 51 52 53 54 55 57 58 59 60 61 62 64 64 65 65 65 64 64 64 64 63 63 63 62 62 62 62 63 63 62 62 61 60 59 59 58
47 48 49 50 51 52 54 55 57 59 61 62 63 64 65 66 66 67 68 69 70 70 70 70 69 68 68 67 67 66 65 64 64 64 64 64 64 64 64 63 62 61 61
56 56 57 58 59 59 60 61 62 64 65 66 67 69 70 71 72 72 72 73 74 74 75 75 75 74 74 73 72 71 70 68 67 66 66 65 64 64 64 64 64 63 62
62 65 67 68 68 68 67 66 66 67 69 71 72 74 74 75 75 75 75 75 76 77 78 78 79 79 78 77 77 76 75 74 72 71 70 69 67 66 65 64 63 63 63
68 71 73 74 74 74 73 72 72 74 75 77 77 77 77 76 76 76 76 76 77 78 79 80 81 81 81 81 80 80 79 79 77 76 75 73 72 71 69 67 65 64 63
73 74 75 76 77 78 78 78 78 79 79 79 78 76 73 71 69 69 70 71 72 73 76 78 79 80 80 81 81 81 81 81 80 79 78 76 75 74 73 71 69 68 66
74 74 75 77 78 80 80 81 81 80 78 74 68 62 58 56 56 57 59 61 64 67 69 71 73 73 73 74 74 75 76 77 78 78 77 76 76 75 74 73 71 70 69
73 75 77 78 80 81 81 80 77 73 67 58 51 46 45 46 48 50 53 56 59 62 65 68 69 69 67 65 62 63 66 67 68 70 72 73 73 73 72 71 70 70 70
73 75 77 79 80 79 76 71 64 55 47 41 38 38 39 40 43 45 47 48 49 50 53 56 60 61 60 57 56 56 56 56 55 56 59 62 65 66 67 68 68 68 68
72 74 74 74 71 66 59 52 44 38 35 33 34 34 36 37 40 40 40 40 39 39 38 39 44 49 51 50 50 52 51 51 51 50 50 53 55 58 60 61 63 65 66
67 66 63 59 54 49 44 39 35 32 31 31 31 32 34 36 37 37 36 35 35 34 33 33 35 39 45 49 49 50 50 49 49 49 48 49 50 53 55 58 60 61 62
58 55 51 48 45 41 37 33 31 29 29 29 30 31 33 34 35 35 34 33 32 31 30 29 31 36 40 46 49 50 51 50 49 49 48 49 50 51 53 54 56 58 60
51 48 46 43 40 36 33 30 29 28 29 30 31 33 34 34 34 34 33 32 31 29 27 26 27 31 36 41 45 48 51 51 51 50 50 51 52 53 53 54 55 57 58
47 46 43 40 37 34 31 30 30 30 31 32 34 34 35 35 34 33 32 31 30 28 25 24 25 27 31 36 40 44 47 50 52 51 50 49 49 51 52 53 53 54 54
45 43 41 39 36 33 32 31 31 32 33 34 36 36 36 36 35 34 32 31 29 27 25 24 24 25 28 31 34 39 42 45 46 47 47 48 48 48 49 50 50 50 50
43 41 40 39 37 35 33 33 33 34 35 37 38 38 38 37 36 34 32 31 30 28 26 24 24 24 26 28 31 34 37 39 41 42 44 46 46 46 46 47 48 47 48
41 40 40 39 38 37 37 36 37 38 39 40 40 40 39 39 37 35 33 31 30 29 27 25 25 24 25 27 29 31 34 37 39 41 42 43 45 46 46 46 46 47 47
40 40 40 40 40 40 40 41 41 42 43 44 43 43 42 40 38 36 34 32 31 30 29 27 26 26 26 26 28 30 34 37 39 40 40 41 43 45 46 45 45 46 46
41 42 42 43 43 44 44 45 46 46 47 47 46 45 43 42 40 38 35 33 32 31 30 30 29 28 28 29 29 30 33 36 39 40 40 41 42 44 44 45 45 45 46
44 45 46 46 47 48 48 49 49 50 50 50 49 48 46 44 42 39 36 34 33 32 32 32 32 32 31 32 32 32 33 35 37 40 41 42 43 43 44 44 44 44 45
47 48 50 51 51 52 52 53 53 53 53 53 52 50 48 46 44 42 39 36 35 34 33 33 33 34 35 35 35 35 35 36 37 39 41 42 43 44 43 43 43 44 44
50 52 53 54 55 55 55 55 54 54 53 52 51 50 48 47 45 44 42 40 38 37 36 35 35 35 37 38 39 39 39 38 39 39 41 42 43 44 44 43 43 43 43
54 55 56 56 56 56 55 53 52 51 50 49 48 47 46 45 44 43 42 42 42 41 39 38 38 38 38 40 41 42 43 43 42 42 42 43 44 45 45 44 43 43 43
56 57 57 56 54 52 50 49 48 48 48 47 46 46 45 44 43 42 41 41 42 43 42 42 42 42 42 42 43 44 45 46 46 46 46 45 45 45 45 45 45 44 43
58 57 54 51 48 46 46 47 47 47 47 47 46 45 44 43 41 40 39 38 39 40 42 43 44 45 46 47 47 46 47 49 50 50 50 50 50 49 48 48 47 46 45
55 51 47 45 44 45 45 46 46 47 47 47 47 46 44 42 40 38 37 36 35 34 36 38 41 44 47 49 51 51 51 51 52 53 53 54 54 54 53 52 51 50 48
Wind_Direction
296 293 291 289 287 285 283 282 280 278 276 275 274 272 271 270 269 269 268 268 267 267 266 265 265 264 263 262 260 260 259 259 258 258 257 257 256 256 255 255 255 255 256
303 299 295 292 290 288 286 284 282 280 280 278 277 275 273 271 270 270 269 269 269 268 267 266 265 265 264 263 262 260 259 259 258 257 257 256 256 255 255 254 254 254 254
306 303 299 295 292 290 287 285 283 282 281 279 277 276 274 273 272 271 271 270 270 270 269 268 267 266 265 263 262 261 259 259 257 257 256 255 254 254 254 253 253 252 253
304 302 299 297 295 293 290 288 285 283 281 280 279 278 277 275 274 273 272 271 270 269 269 268 267 267 266 264 263 262 260 259 257 256 255 254 253 252 252 251 251 251 251
301 299 298 296 295 293 292 290 288 286 285 284 284 283 281 280 278 276 274 272 270 268 267 266 265 264 264 263 262 261 260 258 256 254 253 253 252 251 251 250 250 249 249
301 299 297 295 294 292 292 291 290 289 289 289 289 288 286 285 282 280 278 275 272 269 266 264 262 261 260 259 258 258 257 256 254 253 251 250 250 249 249 249 248 248 247
301 298 296 294 292 292 292 292 293 293 294 293 292 291 289 287 285 283 280 278 274 271 267 264 261 259 257 256 255 254 253 253 252 250 249 248 247 247 247 247 246 246 245
300 297 295 294 293 294 294 295 295 296 296 295 293 291 291 291 291 290 288 284 278 273 267 262 259 256 254 252 251 251 250 250 249 249 248 246 245 244 244 244 243 243 243
297 295 295 295 296 297 297 297 297 297 296 294 293 294 295 297 299 299 298 296 291 284 274 264 256 251 249 248 245 246 247 248 247 246 245 245 244 243 243 242 242 242 242
296 297 298 300 301 301 301 300 300 299 297 297 298 298 300 303 304 305 305 303 301 296 286 271 257 247 242 240 239 242 244 245 244 243 242 242 242 242 241 242 242 242 243
301 304 306 308 308 307 305 303 302 301 301 302 302 304 306 307 307 307 306 305 303 300 290 277 259 248 241 235 234 234 237 240 242 242 240 239 240 240 241 242 242 244 245
311 314 316 316 315 313 310 306 305 304 305 307 308 309 310 310 308 306 304 303 304 301 294 281 263 252 243 238 236 234 234 235 236 238 239 239 240 241 242 243 244 245 246
319 321 322 322 320 317 314 311 309 309 311 313 313 313 313 311 308 305 302 300 301 300 296 285 272 257 247 242 240 237 236 235 234 236 239 240 241 242 242 243 244 244 244
324 325 326 326 325 323 320 318 316 316 316 316 316 315 314 313 309 304 300 297 297 297 294 286 275 264 252 246 242 240 239 237 237 238 239 239 240 240 240 240 241 241 241
327 328 329 329 329 327 325 323 321 320 319 319 318 316 315 313 310 305 300 295 293 293 291 285 277 267 257 249 242 240 239 238 239 239 240 238 239 238 237 236 236 237 239
330 331 332 332 332 330 327 325 322 321 320 319 318 316 315 313 310 306 300 294 290 288 287 283 277 270 261 252 244 239 237 236 236 238 239 238 238 237 236 235 236 239 242
333 333 334 334 333 330 328 325 322 320 319 318 317 315 314 312 310 306 300 294 288 283 281 278 274 270 264 254 246 241 238 235 234 235 236 235 235 235 235 236 238 241 243
335 335 334 333 331 329 326 324 321 319 318 316 315 313 312 310 309 306 301 295 288 281 275 273 269 267 263 257 250 245 240 236 235 235 235 234 234 234 235 238 240 242 244
335 334 333 331 329 327 324 322 319 317 315 314 312 311 309 307 305 304 300 295 289 282 274 269 265 262 260 257 253 249 243 239 236 236 235 236 236 236 238 240 241 242 242
333 332 330 329 327 325 322 320 317 315 314 312 310 308 306 304 301 298 296 292 287 282 275 268 263 259 256 254 253 250 246 242 239 237 236 237 237 238 239 241 242 243 243
331 329 328 326 324 323 321 318 316 314 313 311 309 306 304 301 298 295 291 288 284 280 275 269 263 258 255 252 251 249 247 244 241 239 238 238 239 239 240 241 243 244 244
329 328 326 325 323 322 321 319 318 317 315 314 312 309 306 302 297 293 288 284 280 276 273 268 264 259 255 252 249 248 246 244 243 241 240 240 240 240 241 241 242 243 243
329 328 327 326 325 324 324 324 324 323 322 321 319 316 312 308 303 297 290 285 279 274 270 267 263 260 256 253 250 247 246 244 243 242 241 240 240 240 240 240 240 241 242
330 329 328 328 329 330 332 333 334 333 332 330 328 325 322 317 312 305 297 290 282 276 271 266 262 259 257 253 251 248 247 245 243 242 241 240 239 239 239 238 239 239 239
331 331 332 334 337 340 342 342 342 341 340 339 337 335 332 328 324 318 310 301 292 284 276 269 263 259 257 255 252 249 248 246 245 243 242 241 240 239 238 238 238 238 237
334 337 340 344 346 347 347 347 347 347 346 344 343 341 339 336 333 329 324 317 309 299 289 279 271 263 259 256 254 251 249 247 246 245 244 242 241 240 238 238 238 238 237
Height
5764 5758 5752 5747 5741 5736 5730 5725 5720 5715 5711 5707 5703 5699 5696 5694 5691 5689 5687 5685 5684 5684 5684 5685 5685 5686 5688 5689 5691 5693 5696 5698 5700 5702 5705 5707 5710 5712 5715 5718 5721 5724 5728
5754 5748 5741 5734 5728 5722 5715 5709 5704 5698 5693 5689 5684 5680 5677 5674 5672 5671 5669 5667 5665 5665 5665 5665 5666 5667 5668 5670 5672 5675 5678 5680 5682 5685 5688 5691 5694 5696 5699 5702 5706 5709 5712
5741 5734 5727 5719 5712 5705 5698 5691 5685 5679 5673 5668 5663 5659 5655 5652 5649 5648 5647 5646 5644 5644 5643 5643 5644 5646 5648 5650 5652 5655 5658 5661 5664 5667 5670 5673 5677 5680 5683 5686 5689 5693 5696
5726 5717 5708 5699 5691 5683 5676 5669 5663 5656 5650 5644 5639 5634 5630 5627 5625 5624 5623 5622 5620 5619 5619 5619 5620 5622 5624 5627 5629 5632 5636 5640 5644 5647 5650 5654 5658 5662 5666 5669 5673 5676 5680
5709 5698 5688 5679 5669 5660 5653 5646 5639 5632 5625 5619 5613 5608 5604 5601 5599 5597 5596 5596 5595 5593 5593 5593 5595 5597 5599 5602 5605 5608 5612 5616 5620 5625 5629 5634 5638 5642 5647 5652 5656 5659 5663
5688 5678 5667 5657 5647 5638 5630 5623 5615 5608 5600 5594 5588 5583 5578 5575 5572 5570 5568 5567 5567 5566 5565 5565 5567 5570 5573 5576 5579 5582 5586 5591 5596 5601 5606 5612 5617 5622 5626 5632 5637 5641 5646
5667 5656 5646 5636 5626 5617 5609 5601 5593 5586 5579 5572 5567 5562 5558 5554 5551 5548 5546 5543 5541 5540 5538 5538 5540 5544 5547 5550 5554 5557 5561 5566 5571 5576 5582 5588 5594 5599 5605 5611 5616 5621 5626
5646 5636 5625 5615 5606 5597 5589 5582 5574 5567 5561 5555 5550 5546 5543 5539 5535 5530 5526 5522 5518 5516 5514 5513 5515 5519 5523 5528 5532 5536 5540 5544 5548 5553 5559 5565 5572 5577 5583 5589 5595 5601 5607
5629 5618 5608 5597 5587 5579 5571 5564 5557 5551 5546 5541 5538 5534 5530 5525 5520 5515 5509 5503 5497 5493 5490 5489 5491 5496 5502 5508 5513 5518 5522 5526 5530 5535 5540 5546 5552 5558 5564 5570 5575 5582 5588
5613 5602 5592 5581 5571 5562 5555 5548 5543 5538 5534 5531 5527 5523 5518 5514 5508 5502 5496 5489 5483 5478 5474 5471 5473 5477 5483 5489 5496 5501 5506 5510 5514 5519 5524 5530 5535 5541 5547 5553 5558 5564 5570
5599 5589 5578 5567 5557 5549 5543 5538 5533 5529 5526 5521 5517 5513 5508 5503 5497 5491 5485 5479 5474 5468 5463 5460 5460 5463 5468 5473 5479 5484 5490 5495 5500 5505 5511 5516 5521 5526 5532 5538 5543 5549 5555
5586 5576 5566 5557 5548 5541 5535 5530 5526 5522 5517 5513 5508 5504 5499 5493 5487 5482 5476 5471 5465 5460 5455 5452 5451 5452 5455 5459 5464 5469 5474 5480 5486 5491 5497 5502 5507 5513 5518 5523 5528 5534 5540
5577 5567 5558 5549 5541 5534 5528 5523 5518 5514 5510 5505 5500 5495 5490 5484 5479 5473 5468 5462 5457 5452 5447 5444 5442 5442 5444 5447 5451 5456 5460 5466 5471 5477 5482 5488 5493 5499 5503 5508 5514 5519 5525
5568 5559 5551 5542 5534 5527 5521 5516 5511 5507 5502 5497 5492 5486 5481 5475 5469 5464 5459 5454 5449 5445 5441 5437 5435 5434 5435 5437 5440 5444 5448 5453 5459 5464 5469 5474 5479 5484 5489 5495 5500 5505 5511
5561 5553 5544 5536 5529 5522 5516 5510 5505 5500 5495 5489 5484 5478 5472 5466 5460 5454 5450 5445 5441 5437 5433 5430 5428 5427 5426 5428 5430 5434 5438 5442 5447 5452 5456 5461 5466 5471 5476 5481 5487 5492 5497
5555 5546 5538 5530 5523 5516 5510 5505 5499 5493 5488 5482 5476 5469 5463 5457 5450 5445 5440 5436 5432 5428 5425 5423 5421 5419 5419 5419 5422 5424 5428 5431 5436 5440 5445 5449 5454 5459 5464 5469 5475 5480 5484
5549 5541 5533 5525 5517 5511 5504 5498 5492 5486 5479 5473 5466 5460 5453 5447 5441 5435 5430 5426 5422 5419 5417 5415 5413 5412 5411 5411 5413 5415 5418 5421 5425 5429 5433 5437 5442 5447 5452 5457 5462 5467 5471
5544 5535 5527 5520 5512 5505 5497 5490 5483 5476 5469 5462 5455 5449 5442 5436 5430 5424 5419 5415 5412 5409 5407 5406 5404 5403 5403 5403 5404 5406 5408 5411 5414 5418 5421 5425 5430 5435 5439 5444 5449 5454 5458
5538 5530 5522 5514 5505 5497 5489 5482 5474 5466 5458 5451 5444 5437 5430 5424 5419 5413 5408 5404 5400 5398 5396 5395 5394 5394 5394 5393 5394 5396 5398 5400 5403 5406 5410 5414 5418 5423 5428 5432 5437 5441 5445
5533 5524 5516 5507 5498 5489 5480 5471 5463 5454 5446 5438 5430 5423 5417 5411 5406 5401 5396 5392 5389 5386 5384 5383 5383 5383 5383 5383 5384 5385 5387 5389 5392 5395 5399 5402 5406 5410 5415 5419 5423 5427 5431
5527 5518 5508 5498 5489 5479 5470 5460 5451 5441 5432 5424 5416 5408 5402 5396 5391 5386 5382 5378 5375 5373 5371 5370 5370 5370 5371 5371 5372 5373 5376 5378 5380 5383 5387 5390 5394 5398 5402 5406 5410 5414 5417
5520 5510 5499 5489 5478 5468 5458 5448 5438 5428 5418 5409 5401 5393 5385 5379 5374 5370 5366 5363 5360 5358 5357 5356 5356 5356 5357 5358 5359 5360 5363 5365 5368 5371 5374 5378 5381 5385 5389 5393 5397 5401 5404
5511 5501 5490 5478 5467 5456 5446 5436 5425 5415 5406 5396 5387 5379 5371 5363 5357 5353 5348 5345 5342 5341 5340 5340 5340 5341 5342 5343 5344 5346 5348 5351 5355 5358 5361 5364 5368 5372 5376 5380 5384 5388 5392
5503 5492 5480 5469 5457 5446 5435 5425 5415 5405 5395 5385 5376 5367 5358 5350 5343 5336 5332 5328 5324 5322 5322 5322 5323 5324 5325 5326 5328 5330 5333 5336 5339 5343 5346 5350 5354 5358 5362 5366 5371 5375 5379
5494 5483 5471 5460 5449 5439 5429 5419 5408 5398 5388 5377 5367 5358 5348 5339 5331 5323 5317 5312 5308 5305 5303 5304 5304 5305 5306 5307 5310 5313 5316 5319 5322 5326 5330 5334 5339 5343 5347 5352 5357 5362 5366
5486 5475 5464 5454 5444 5434 5424 5414 5404 5393 5383 5372 5362 5352 5342 5332 5323 5315 5307 5299 5295 5290 5287 5285 5285 5286 5287 5288 5291 5293 5297 5300 5304 5308 5312 5316 5321 5326 5331 5336 5341 5347 5352